This demonstration page uses our WeatherBlox Daily Observations layout. Learn more.

Left ArrowRight Arrow

39.12711, -84.51439

Hourly Observations for July 1, 2018

Temp ( °F °C ) Dew Point ( °F °C ) Humidity (%) Winds ( mph kmh ) Pressure ( in mb ) Visibility ( mi km ) Precip ( " mm )
12:53 am 00:53 Clear with Mist and Fog 74 23.3 73 22.8 97 97 Calm 30.00 1016 6 10 0.00 0.00
1:53 am 01:53 Clear with Mist and Fog 73 22.8 73 22.8 100 100 Calm 30.01 1016 6 10 0.00 0.00
2:53 am 02:53 Clear with Mist and Fog 71 21.7 71 21.7 100 100 Calm 30.01 1016 4 6 0.00 0.00
3:53 am 03:53 Clear with Mist and Fog 72 22.2 72 22.2 100 100 Calm 30.00 1016 6 10 0.00 0.00
4:53 am 04:53 Clear with Mist and Fog 71 21.7 71 21.7 100 100 Calm 30.00 1016 5 8 0.00 0.00
5:53 am 05:53 Partly Cloudy with Mist and Fog 71 21.7 71 21.7 100 100 Calm 30.00 1016 5 8 0.00 0.00
6:13 am 06:13 Clear with Mist and Fog 70 21.1 70 21.1 100 100 Calm 30.00 1016 2 3 0.00 0.00
6:22 am 06:22 Sunny with Mist and Fog 71 21.7 71 21.7 100 100 Calm 30.00 1016 3 5 0.00 0.00
6:53 am 06:53 Sunny with Mist and Fog 71 21.7 71 21.7 100 100 Calm 30.01 1016 6 10 0.00 0.00
7:53 am 07:53 Sunny with Mist and Fog 74 23.3 74 23.3 100 100 Calm 30.02 1017 6 10 0.00 0.00
8:53 am 08:53 Sunny 80 26.7 74 23.3 82 82 SW 3 6 30.02 1017 10 16 0.00 0.00
9:53 am 09:53 Sunny 84 28.9 75 23.9 74 74 SSW 6 9 30.01 1016 10 16 0.00 0.00
10:53 am 10:53 Sunny 88 31.1 77 25 70 70 S 7 11 30.00 1016 10 16 0.00 0.00
11:53 am 11:53 Partly Cloudy 90 32.2 77 25 66 66 S 9 15 30.01 1016 10 16 0.00 0.00
12:53 pm 12:53 Partly Cloudy 91 32.8 76 24.4 61 61 SSW 10 17 29.99 1016 10 16 0.00 0.00
1:53 pm 13:53 Partly Cloudy 92 33.3 76 24.4 60 60 S 10 17 29.97 1015 10 16 0.00 0.00
2:51 pm 14:51 Partly Cloudy with Thunderstorms 90 32 75 24 63 63 SSW 5 7 29.91 1013 10 16 0.00 0.03
2:53 pm 14:53 Partly Cloudy with Thunderstorms 89 31.7 76 24.4 65 65 SSW 6 9 29.97 1015 10 16 0.00 0.03
3:13 pm 15:13 Mostly Cloudy with Thunderstorms 79 26.1 72 22.2 79 79 NW 17 28 29.97 1015 3 4 0.06 1.52
3:23 pm 15:23 Mostly Cloudy with Thunderstorms 77 25 72 22.2 85 85 WNW 10 17 29.97 1015 6 10 0.07 1.78
3:53 pm 15:53 Cloudy with Thunderstorms 76 24.4 73 22.8 91 91 S 6 9 30.00 1016 10 16 0.09 2.29
4:21 pm 16:21 Mostly Sunny 77 25 73 22.8 88 88 W 5 7 29.97 1015 10 16 0.00 0.03
4:53 pm 16:53 Partly Cloudy with Light Rain 76 24.4 73 22.8 91 91 WSW 5 7 29.97 1015 10 16 0.00 0.03
5:53 pm 17:53 Mostly Sunny 79 26.1 74 23.3 85 85 S 8 13 29.97 1015 10 16 0.01 0.25
6:53 pm 18:53 Mostly Sunny 79 26.1 73 22.8 82 82 S 5 7 29.95 1014 10 16 0.00 0.00
7:53 pm 19:53 Sunny 81 27.2 74 23.3 79 79 S 5 7 29.96 1014 10 16 0.00 0.00
8:53 pm 20:53 Sunny 78 25.6 73 22.8 85 85 SSW 3 6 29.97 1015 10 16 0.00 0.00
9:53 pm 21:53 Clear 77 25 72 22.2 85 85 Calm 29.98 1015 10 16 0.00 0.00
10:53 pm 22:53 Clear 76 24.4 72 22.2 88 88 SW 3 6 30.00 1016 10 16 0.00 0.00
11:53 pm 23:53 Clear 76 24.4 72 22.2 88 88 Calm 30.00 1016 10 16 0.00 0.00

Powered by AerisWeather